Location: Cedar Brake
(32.2526°N, 97.8459°W)
Time: 19:19:19
(UTC+00:00)

Cosmos 1937 Rocket - Pass Details

Date: 22 April 2026
Orbit: 742 x 775 km, 74.0° (Epoch: 21 May)

Event Time Altitude Azimuth Distance (km) Brightness Sun altitude
Rises 10:52:31 0° 340° (NNW) 3,212 6.8 -13.1°
Reaches altitude 10° 10:54:55 10° 337° (NNW) 2,279 6.0 -12.7°
Maximum altitude 11:00:01 66° 256° (WSW) 815 3.4 -11.7°
Drops below altitude 10° 11:05:04 10° 175° (S) 2,249 5.8 -10.7°
Sets 11:07:25 0° 172° (S) 3,166 6.5 -10.2°
